Location: Unspecified
(40.7945°N, 0.0000°E)
Time: 13:53:44
(UTC+00:00)

deb Explorer IX - All Passes

Search period start: 23 January 2021 00:00
Search period end: 02 February 2021 00:00
Orbit: 536 x 1104 km, 38.8° (Epoch: 22 January)

Date Brightness Start Highest point End Pass type
(mag) Time Alt. Az. Time Alt. Az. Time Alt. Az.
23 Jan - 00:18:59 10° WSW 00:20:25 11° SW 00:21:50 10° SSW night (unlit)
23 Jan - 16:45:20 10° SSW 16:50:49 27° SSE 16:55:45 10° E daylight
23 Jan - 18:31:19 10° WSW 18:37:32 58° SSE 18:42:48 10° E visible
23 Jan - 20:18:38 10° W 20:24:23 72° S 20:29:14 10° E visible
23 Jan - 22:06:07 10° W 22:10:59 42° SSW 22:15:12 10° SE night (unlit)
23 Jan - 23:55:09 10° WSW 23:56:50 12° SW 23:58:27 10° SSW night (unlit)
24 Jan - 16:21:25 10° SSW 16:27:05 28° SSE 16:32:12 10° E daylight
24 Jan - 18:07:26 10° WSW 18:13:49 59° SSE 18:19:16 10° E visible
24 Jan - 19:54:47 10° W 20:00:44 73° S 20:05:45 10° E visible
24 Jan - 21:42:19 10° W 21:47:22 43° SSW 21:51:43 10° SE visible
24 Jan - 23:31:18 10° WSW 23:33:13 12° SW 23:35:05 10° SSW night (unlit)
25 Jan - 15:57:30 10° SSW 16:03:19 29° SSE 16:08:37 10° E daylight
25 Jan - 17:43:32 10° WSW 17:50:05 59° SSE 17:55:43 10° E visible
25 Jan - 19:30:55 10° W 19:37:04 73° S 19:42:14 10° E visible
25 Jan - 21:18:29 10° W 21:23:44 44° SSW 21:28:13 10° SE visible
25 Jan - 23:07:25 10° WSW 23:09:37 13° SW 23:11:41 10° S night (unlit)
26 Jan - 15:33:35 10° SSW 15:39:32 29° SSE 15:45:01 10° E daylight
26 Jan - 17:19:37 10° WSW 17:26:20 60° SSE 17:32:09 10° E daylight
26 Jan - 19:07:01 10° W 19:13:21 74° S 19:18:42 10° E visible
26 Jan - 20:54:37 10° W 21:00:05 45° SSW 21:04:44 10° SE visible
26 Jan - 22:43:32 10° WSW 22:45:59 14° SW 22:48:18 10° S night (unlit)
27 Jan - 15:09:41 10° SSW 15:15:45 30° SSE 15:21:22 10° E daylight
27 Jan - 16:55:43 10° WSW 17:02:34 61° SSE 17:08:33 10° E daylight
27 Jan - 18:43:07 10° W 18:49:38 74° S 18:55:10 10° E visible
27 Jan - 20:30:46 10° W 20:36:25 46° SSW 20:41:13 10° SE visible
27 Jan - 22:19:37 10° WSW 22:22:21 14° SW 22:24:53 10° S night (unlit)
28 Jan - 14:45:47 10° SSW 14:51:57 30° SSE 14:57:42 10° E daylight
28 Jan - 16:31:49 10° WSW 16:38:47 62° SSE 16:44:57 10° E daylight
28 Jan - 18:19:13 10° W 18:25:54 75° S 18:31:36 10° E visible
28 Jan - 20:06:52 10° W 20:12:43 47° SSW 20:17:42 10° SE visible
28 Jan - 21:55:41 10° WSW 21:58:41 15° SW 22:01:28 10° S visible
29 Jan - 14:21:54 10° SSW 14:28:07 31° SSE 14:34:00 10° E daylight
29 Jan - 16:07:54 10° WSW 16:14:58 62° SSE 16:21:19 10° E daylight
29 Jan - 17:55:18 10° W 18:02:08 75° S 18:08:01 10° E visible
29 Jan - 19:42:58 10° W 19:49:00 48° SSW 19:54:10 10° SE visible
29 Jan - 21:31:44 10° WSW 21:35:01 16° SW 21:38:01 10° S visible
30 Jan - 13:58:01 10° SSW 14:04:17 31° SSE 14:10:17 10° E daylight
30 Jan - 15:44:00 10° WSW 15:51:08 63° SSE 15:57:38 10° E daylight
30 Jan - 17:31:22 10° W 17:38:21 76° S 17:44:25 10° E visible
30 Jan - 19:19:03 10° W 19:25:17 49° SSW 19:30:36 10° SE visible
30 Jan - 21:07:48 10° WSW 21:11:20 16° SW 21:14:34 10° S visible
31 Jan - 13:34:09 10° SSW 13:40:26 32° SSE 13:46:32 10° E daylight
31 Jan - 15:20:06 10° WSW 15:27:18 63° SSE 15:33:57 10° E daylight
31 Jan - 17:07:27 10° W 17:14:33 76° S 17:20:48 10° E daylight
31 Jan - 18:55:07 10° W 19:01:31 50° SSW 19:07:02 10° SE visible
31 Jan - 20:43:50 10° WSW 20:47:37 17° SW 20:51:05 10° S visible
01 Feb - 13:10:19 10° SSW 13:16:34 32° SSE 13:22:45 10° E daylight
01 Feb - 14:56:13 10° WSW 15:03:27 63° SSE 15:10:14 10° E daylight
01 Feb - 16:43:32 10° W 16:50:44 76° S 16:57:08 10° E daylight
01 Feb - 18:31:11 10° W 18:37:45 50° SSW 18:43:26 10° SE visible
01 Feb - 20:19:51 10° W 20:23:53 18° SW 20:27:34 10° S visible
